This demonstration page uses our WeatherBlox Daily Observations layout. Learn more.

Left ArrowRight Arrow

39.51506, -84.39828

Hourly Observations for March 18, 2018

Temp ( °F °C ) Dew Point ( °F °C ) Humidity (%) Winds ( mph kmh ) Pressure ( in mb ) Visibility ( mi km ) Precip ( " mm )
12:15 am 00:15 Cloudy 38 3.4 31 -0.3 77 77 NNE 7 11 30.03 1017 10 16.0934 N/A
12:35 am 00:35 Cloudy 38 3.4 31 -0.7 75 75 NNE 8 13 30.03 1017 10 16.0934 N/A
12:55 am 00:55 Cloudy 38 3.6 29 -1.4 70 70 NE 7 11 30 1016 10 16.0934 N/A
1:15 am 01:15 Partly Cloudy 37 2.7 28 -2.1 71 71 NNE 6 9 30.03 1017 10 16.0934 N/A
1:35 am 01:35 Clear 36 2.3 29 -1.9 74 74 N 3 6 30.03 1017 10 16.0934 N/A
1:55 am 01:55 Clear 35 1.9 29 -1.7 77 77 N 5 7 30.06 1018 10 16.0934 N/A
2:15 am 02:15 Clear 34 1.3 29 -1.7 81 81 N 5 7 30.06 1018 10 16.0934 N/A
2:35 am 02:35 Clear 32 undefined 29 -1.9 87 87 N 3 6 30.06 1018 10 16.0934 N/A
2:55 am 02:55 Clear 31 -0.4 28 -2.2 88 88 N N/A 30.06 1018 10 16.0934 N/A
3:15 am 03:15 Clear 31 -0.5 28 -2.2 88 88 N N/A 30.06 1018 10 16.0934 N/A
3:35 am 03:35 Clear 31 -0.8 28 -2.1 91 91 NNE 3 6 30.06 1018 10 16.0934 N/A
3:55 am 03:55 Clear 30 -1.3 27 -2.7 90 90 N 3 6 30.06 1018 10 16.0934 N/A
4:15 am 04:15 Clear 29 -1.4 27 -2.8 90 90 NNE 3 6 30.06 1018 10 16.0934 N/A
4:35 am 04:35 Clear 30 -1.3 27 -3 88 88 N N/A 30.06 1018 10 16.0934 N/A
4:55 am 04:55 Clear 29 -1.8 26 -3.2 90 90 N N/A 30.06 1018 10 16.0934 N/A
5:15 am 05:15 Clear 29 -1.7 26 -3.4 88 88 N 3 6 30.06 1018 10 16.0934 N/A
5:35 am 05:35 Clear 29 -1.8 26 -3.4 89 89 N N/A 30.09 1019 10 16.0934 N/A
5:55 am 05:55 Clear 28 -2.5 26 -3.6 92 92 N N/A 30.09 1019 10 16.0934 N/A
6:15 am 06:15 Clear 27 -2.8 26 -3.5 95 95 N 3 6 30.09 1019 10 16.0934 N/A
6:35 am 06:35 Clear 27 -2.6 26 -3.6 93 93 NNE 3 6 30.09 1019 10 16.0934 N/A
6:55 am 06:55 Clear 25 -3.7 24 -4.5 94 94 N N/A 30.09 1019 7 11.26538 N/A
7:15 am 07:15 Clear 26 -3.3 25 -3.9 96 96 N 3 6 30.12 1020 10 16.0934 N/A
7:35 am 07:35 Clear 26 -3.1 24 -4.5 90 90 N N/A 30.12 1020 10 16.0934 N/A
7:55 am 07:55 Sunny with Mist and Fog 24 -4.4 23 -5 96 96 NNE 3 6 30.12 1020 5 8.0467 N/A
8:15 am 08:15 Sunny with Mist and Fog 25 -3.9 24 -4.6 95 95 N N/A 30.12 1020 5 8.0467 N/A
8:35 am 08:35 Sunny 27 -3 25 -3.9 94 94 N N/A 30.12 1020 7 11.26538 N/A
8:55 am 08:55 Sunny 29 -1.5 26 -3.2 88 88 ENE 3 6 30.15 1021 10 16.0934 N/A
9:15 am 09:15 Sunny 31 -0.3 27 -2.8 83 83 NE 3 6 30.15 1021 10 16.0934 N/A
9:35 am 09:35 Sunny 33 0.8 27 -2.8 77 77 ENE 3 6 30.15 1021 10 16.0934 N/A
9:55 am 09:55 Sunny 35 1.8 27 -2.8 72 72 NE 5 7 30.15 1021 10 16.0934 N/A
10:15 am 10:15 Sunny 37 2.5 25 -3.9 63 63 NE 5 7 30.15 1021 10 16.0934 N/A
10:35 am 10:35 Sunny 38 3.6 24 -4.7 55 55 ENE 5 7 30.15 1021 10 16.0934 N/A
10:55 am 10:55 Sunny 40 4.2 23 -4.9 52 52 NE 5 7 30.15 1021 10 16.0934 N/A
11:15 am 11:15 Sunny 42 5.7 22 -5.7 44 44 NE 6 9 30.12 1020 10 16.0934 N/A
11:35 am 11:35 Sunny 45 7 17 -8.3 33 33 SE 3 6 30.09 1019 10 16.0934 N/A
11:55 am 11:55 Sunny 47 8.2 17 -8.4 30 30 E 6 9 30.09 1019 10 16.0934 N/A
12:15 pm 12:15 Sunny 47 8.2 17 -8.6 30 30 ESE 5 7 30.09 1019 10 16.0934 N/A
12:35 pm 12:35 Sunny 49 9.4 19 -7.3 30 30 E 8 13 30.09 1019 10 16.0934 N/A
12:55 pm 12:55 Sunny 49 9.3 18 -7.8 29 29 E 6 9 30.06 1018 10 16.0934 N/A
1:15 pm 13:15 Sunny 49 9.7 18 -7.6 29 29 SSE 5 7 30.06 1018 10 16.0934 N/A
1:35 pm 13:35 Sunny 49 9.7 14 -10.2 24 24 E 8 13 30.06 1018 10 16.0934 N/A
1:55 pm 13:55 Sunny 51 10.7 17 -8.4 25 25 ENE 7 11 30.06 1018 10 16.0934 N/A
2:15 pm 14:15 Sunny 52 11.3 17 -8.4 24 24 NE 6 9 30.03 1017 10 16.0934 N/A
2:35 pm 14:35 Sunny 54 12 19 -7.5 25 25 SSW 6 9 30.03 1017 10 16.0934 N/A
2:55 pm 14:55 Sunny 54 12 18 -7.8 24 24 SSE 7 11 30.03 1017 10 16.0934 N/A
3:15 pm 15:15 Sunny 53 11.9 17 -8.2 24 24 S 3 6 30 1016 10 16.0934 N/A
3:35 pm 15:35 Sunny 54 12.4 18 -7.9 24 24 N N/A 30 1016 10 16.0934 N/A
3:55 pm 15:55 Sunny 55 12.8 18 -8 23 23 N N/A 30 1016 10 16.0934 N/A
4:15 pm 16:15 Sunny 56 13.1 17 -8.2 22 22 E 6 9 30 1016 10 16.0934 N/A
4:35 pm 16:35 Sunny 55 13 18 -7.6 23 23 ENE 6 9 29.97 1015 10 16.0934 N/A
4:55 pm 16:55 Sunny 55 12.7 18 -7.7 24 24 NE 3 6 29.97 1015 10 16.0934 N/A
5:15 pm 17:15 Sunny 56 13.3 19 -7 24 24 ENE 6 9 29.97 1015 10 16.0934 N/A
5:35 pm 17:35 Sunny 55 12.7 18 -8 23 23 E 7 11 29.94 1014 10 16.0934 N/A
5:55 pm 17:55 Sunny 55 12.6 19 -7.5 24 24 NE 5 7 29.94 1014 10 16.0934 N/A
6:15 pm 18:15 Sunny 55 12.5 18 -7.6 24 24 N N/A 29.94 1014 10 16.0934 N/A
6:35 pm 18:35 Sunny 55 12.6 20 -6.8 25 25 ESE 3 6 29.94 1014 10 16.0934 N/A
6:55 pm 18:55 Sunny 54 12 19 -7.3 25 25 N N/A 29.94 1014 10 16.0934 N/A
7:15 pm 19:15 Sunny 53 11.7 20 -6.5 28 28 ESE 5 7 29.94 1014 10 16.0934 N/A
7:35 pm 19:35 Sunny 52 11.2 21 -6 30 30 E 6 9 29.94 1014 10 16.0934 N/A
7:55 pm 19:55 Clear 51 10.5 20 -6.4 30 30 E 3 6 29.94 1014 10 16.0934 N/A
8:15 pm 20:15 Clear 49 9.7 21 -6.1 33 33 E 3 6 29.94 1014 10 16.0934 N/A
8:35 pm 20:35 Clear 42 5.8 29 -1.6 59 59 N N/A 29.94 1014 10 16.0934 N/A
8:55 pm 20:55 Clear 41 4.9 30 -1.1 65 65 N N/A 29.94 1014 10 16.0934 N/A
9:15 pm 21:15 Clear 39 4 27 -2.7 62 62 N N/A 29.94 1014 10 16.0934 N/A
9:35 pm 21:35 Clear 39 3.7 27 -2.7 63 63 N N/A 29.94 1014 10 16.0934 N/A
9:55 pm 21:55 Clear 38 3.3 28 -2 69 69 N N/A 29.94 1014 10 16.0934 N/A
10:15 pm 22:15 Clear 38 3.2 27 -2.6 66 66 N N/A 29.94 1014 10 16.0934 N/A
10:35 pm 22:35 Clear 37 2.9 28 -2.5 68 68 N N/A 29.97 1015 10 16.0934 N/A
10:55 pm 22:55 Clear 36 2.4 28 -2.1 72 72 NNE 5 7 29.94 1014 10 16.0934 N/A
11:15 pm 23:15 Clear 33 0.8 26 -3.3 74 74 N 3 6 29.94 1014 10 16.0934 N/A
11:35 pm 23:35 Clear 33 0.3 26 -3.4 76 76 NNE 3 6 29.94 1014 10 16.0934 N/A
11:55 pm 23:55 Clear 33 0.6 27 -2.9 78 78 NNE 3 6 29.94 1014 10 16.0934 N/A

Powered by AerisWeather